Stations météo

réclame
Mon MeteoGroup
Mierkenis, Suède (2121): Température de l'air & dewpoint: 09.09.2019 12:00:00 - 15.09.2019 12:00:00 (CEST)Mierkenis, Suède (2121): Vitesse du vent & gusts: 09.09.2019 12:00:00 - 15.09.2019 12:00:00 (CEST)Mierkenis, Suède (2121): Direction du vent: 09.09.2019 12:00:00 - 15.09.2019 12:00:00 (CEST)Mierkenis, Suède (2121): reduced air pressure: 09.09.2019 12:00:00 - 15.09.2019 12:00:00 (CEST)Mierkenis, Suède (2121): visibility: 09.09.2019 12:00:00 - 15.09.2019 12:00:00 (CEST)Mierkenis, Suède (2121): Quantités de précipitations: 09.09.2019 12:00:00 - 15.09.2019 12:00:00 (CEST)
Date & Time tt [°C] td [°C] ff [km/h] ff [knt] fx [km/h] fx [knt] dd ppp [hPa] vv [km] rr [mm]
15.09.2019 12:00:00 3,4 2,5 15 8 29 15 SSE 990,5 36 0,0
15.09.2019 11:00:00 2,8 2,2 13 7 27 15 SSE 990,6 10 0,1
15.09.2019 10:00:00 2,1 1,7 16 8 27 14 SSE 991,1 12 0,4
15.09.2019 09:00:00 1,8 1,4 18 10 29 16 SE 991,3 8 0,4
15.09.2019 08:00:00 1,6 1,2 17 9 34 18 SE 991,6 4,7 1,1
15.09.2019 07:00:00 2,0 1,6 19 10 37 20 SE 992,2 10 0,7
15.09.2019 06:00:00 1,8 1,2 19 10 40 22 SE 993,2 12 0,4
15.09.2019 05:00:00 1,8 1,4 22 12 35 19 SE 994,2 10 0,7
15.09.2019 04:00:00 1,9 1,3 20 11 39 21 SE 995,4 10 0,6
15.09.2019 03:00:00 2,3 1,1 21 12 37 20 SE 996,8 8 0,2
15.09.2019 02:00:00 2,4 0,5 16 8 24 13 SE 998,4 50 0,0
15.09.2019 01:00:00 2,5 0,6 15 8 24 13 ESE 1000,0 50 0,0
15.09.2019 00:00:00 2,0 0,8 10 6 20 11 SE 1002,0 50 0,0
14.09.2019 23:00:00 2,7 1,2 10 6 17 9 ESE 1002,9 50 0,0
14.09.2019 22:00:00 0,8 -0,4 4 2 9 5 SSE 1005,0 50 0,0
14.09.2019 21:00:00 2,5 0,1 6 4 16 9 SE 1005,9 50 0,0
14.09.2019 20:00:00 4,6 0,0 9 5 14 8 E 1006,4 50 0,0
14.09.2019 19:00:00 3,5 1,1 5 3 18 10 W 1007,5 50 0,0
14.09.2019 18:00:00 5,4 0,8 10 5 19 10 W 1008,1 42 0,0
14.09.2019 17:00:00 5,6 0,0 8 4 27 15 W 1008,9 50 0,0
14.09.2019 16:00:00 8,1 0,3 11 6 32 17 W 1008,6 50 0,0
14.09.2019 15:00:00 7,7 -0,5 16 8 31 17 W 1008,9 44 0,0
14.09.2019 14:00:00 7,8 0,7 11 6 27 15 WNW 1009,2 45 0,0
14.09.2019 13:00:00 6,4 0,5 11 6 26 14 W 1009,5 50 0,0
14.09.2019 12:00:00 7,6 1,0 9 5 21 11 WNW 1009,2 44 0,0
14.09.2019 11:00:00 5,7 1,4 11 6 21 11 NNW 1009,5 38 0,0
14.09.2019 10:00:00 4,5 1,0 3 1 14 8 ESE 1009,7 47 0,0
14.09.2019 09:00:00 3,4 1,1 4 2 8 4 NNW 1009,8 25 0,0
14.09.2019 08:00:00 1,8 1,2 0 0 7 4 N 1010,2 39 0,0
14.09.2019 07:00:00 0,7 0,3 3 2 11 6 NW 1010,4 35 0,0
14.09.2019 06:00:00 -0,2 -0,6 4 2 8 4 NW 1010,6 40 0,0
14.09.2019 05:00:00 0,2 -0,4 3 2 9 5 NNE 1010,7 41 0,0
14.09.2019 04:00:00 -0,1 -0,5 5 3 11 6 NE 1010,9 36 0,0
14.09.2019 03:00:00 -1,3 -1,6 4 2 6 4 NW 1011,2 31 0,0
14.09.2019 02:00:00 -1,5 -1,9 3 2 5 3 WNW 1011,1 26 0,0
14.09.2019 01:00:00 0,0 -1,1 3 1 16 9 E 1010,8 33 0,0
14.09.2019 00:00:00 2,2 -0,1 13 7 29 16 NNW 1010,5 45 0,0
13.09.2019 23:00:00 2,2 0,4 13 7 33 18 NNW 1010,2 46 0,0
13.09.2019 22:00:00 3,1 1,0 16 9 27 15 NW 1009,8 34 0,0
13.09.2019 21:00:00 3,5 1,1 12 6 28 15 NW 1009,7 50 0,0
13.09.2019 20:00:00 3,7 0,9 16 9 31 17 NW 1009,4 50 0,0
13.09.2019 19:00:00 4,1 1,0 14 8 35 19 NW 1009,0 25 0,0
13.09.2019 18:00:00 4,0 1,5 21 11 36 19 NW 1008,4 35 0,0
13.09.2019 17:00:00 4,6 1,3 19 10 40 22 NW 1008,0 45 0,0
13.09.2019 16:00:00 5,2 0,8 23 13 46 25 NW 1007,4 37 0,0
13.09.2019 15:00:00 6,0 0,9 22 12 37 20 NW 1006,7 41 0,0
13.09.2019 14:00:00 6,3 2,0 19 10 36 20 NW 1005,8 50 0,0
13.09.2019 13:00:00 5,8 1,5 18 10 37 20 NW 1005,1 45 0,0
13.09.2019 12:00:00 6,3 2,7 20 11 36 20 NW 1004,1 28 0,0
13.09.2019 11:00:00 6,5 2,8 13 7 30 16 NW 1003,1 50 0,0
13.09.2019 10:00:00 6,5 2,9 16 9 34 18 NW 1002,2 45 0,0
13.09.2019 09:00:00 5,3 3,5 13 7 30 16 NNW 1002,1 49 0,0
13.09.2019 08:00:00 4,6 3,4 11 6 30 16 NNW 1001,7 44 0,0
13.09.2019 07:00:00 4,4 3,5 8 4 24 13 NW 1001,1 50 0,0
13.09.2019 06:00:00 4,3 2,8 12 7 24 13 NNW 1000,7 50 0,0
13.09.2019 05:00:00 4,5 2,8 12 6 19 10 N 1000,4 49 0,0
13.09.2019 04:00:00 4,2 3,0 5 3 19 11 NNW 1000,6 26 1,3
13.09.2019 03:00:00 4,7 2,9 10 5 23 12 WNW 1000,7 9 1,7
13.09.2019 02:00:00 4,6 3,3 12 7 24 13 NNW 1000,5 7 1,9
13.09.2019 01:00:00 5,2 3,4 10 5 19 11 NW 1000,3 20 0,4
13.09.2019 00:00:00 5,9 3,7 3 2 11 6 NNE 1000,3 50 0,0
12.09.2019 23:00:00 6,1 3,8 5 3 13 7 WNW 1000,5 29 0,0
12.09.2019 22:00:00 6,9 3,0 3 2 16 9 W 1000,5 50 0,0
12.09.2019 21:00:00 6,4 2,8 7 4 21 12 WNW 1000,7 50 0,0
12.09.2019 20:00:00 6,9 3,1 9 5 30 16 NW 1000,8 50 0,0
12.09.2019 19:00:00 7,5 2,8 15 8 33 18 WNW 1001,0 50 0,0
12.09.2019 18:00:00 8,1 3,0 13 7 37 20 WNW 1001,0 50 0,0
12.09.2019 17:00:00 9,3 4,3 11 6 29 16 W 1000,4 44 0,0
12.09.2019 16:00:00 9,8 4,2 12 7 34 19 NW 999,9 49 0,0
12.09.2019 15:00:00 10,9 3,9 17 9 39 21 W 999,4 40 0,0
12.09.2019 14:00:00 11,6 5,0 16 9 36 19 W 998,5 41 0,0
12.09.2019 13:00:00 11,2 5,4 14 8 31 17 WNW 998,5 42 0,0
12.09.2019 12:00:00 10,6 5,1 5 3 27 15 WSW 998,4 47 0,0
12.09.2019 11:00:00 12,6 6,6 10 5 27 15 NW 997,4 46 0,0
12.09.2019 10:00:00 10,7 6,3 12 6 31 17 NW 997,7 41 0,0
12.09.2019 09:00:00 8,7 5,6 14 8 31 17 WNW 998,1 49 0,0
12.09.2019 08:00:00 7,8 7,5 2 1 7 4 ESE 998,2 42 0,0
12.09.2019 07:00:00 7,6 7,5 3 2 8 4 N 998,2 30 0,3
12.09.2019 06:00:00 7,7 7,4 3 1 8 4 W 998,2 21 0,1
12.09.2019 05:00:00 8,6 7,4 5 3 12 7 W 997,9 50 0,1
12.09.2019 04:00:00 9,2 8,1 6 3 15 8 NNE 997,8 17 1,2
12.09.2019 03:00:00 10,1 9,2 9 5 18 10 E 997,5 41 0,2
12.09.2019 02:00:00 9,6 8,8 14 7 23 13 ESE 997,9 49 0,2
12.09.2019 01:00:00 10,3 10,0 18 10 27 15 SE 997,9 7 0,6
12.09.2019 00:00:00 10,6 10,3 17 9 31 17 ESE 997,8 6 4,0
11.09.2019 23:00:00 10,6 10,3 17 9 40 22 SE 998,0 8 0,2
11.09.2019 22:00:00 11,1 10,3 22 12 35 19 ESE 998,3 20 0,5
11.09.2019 21:00:00 11,1 10,3 16 9 32 17 ESE 999,3 10 0,3
11.09.2019 20:00:00 11,2 10,6 18 10 35 19 SE 999,8 10 0,5
11.09.2019 19:00:00 11,2 10,7 18 10 28 15 SE 1000,2 4,9 4,1
11.09.2019 18:00:00 11,3 10,4 14 8 28 15 SE 1000,4 7 0,7
11.09.2019 17:00:00 11,7 9,9 12 6 40 21 SE 1001,0 8 0,2
11.09.2019 16:00:00 13,0 8,7 26 14 45 24 SE 1001,3 21 0,0
11.09.2019 15:00:00 13,6 8,9 32 17 45 24 SE 1001,5 37 0,0
11.09.2019 14:00:00 12,8 9,1 29 16 46 25 SE 1002,6 29 0,0
11.09.2019 13:00:00 12,3 9,5 22 12 47 26 SE 1003,7 28 0,0
11.09.2019 12:00:00 12,0 9,7 24 13 43 23 SE 1004,4 23 0,0
11.09.2019 11:00:00 11,8 9,9 19 11 37 20 SE 1005,3 20 0,0
11.09.2019 10:00:00 11,7 9,8 23 12 39 21 SE 1006,2 21 0,0
11.09.2019 09:00:00 11,5 9,7 20 11 37 20 SE 1007,1 18 0,0
11.09.2019 08:00:00 11,2 9,5 21 11 30 16 SE 1007,9 19 0,0
11.09.2019 07:00:00 10,9 9,3 18 10 43 23 ESE 1008,2 21 0,0
11.09.2019 06:00:00 11,4 9,7 16 9 34 19 SE 1008,9 26 0,0
11.09.2019 05:00:00 11,5 10,4 14 8 34 18 SE 1009,2 22 0,0
11.09.2019 04:00:00 11,6 10,8 16 9 33 18 SSE 1010,4 18 0,0
11.09.2019 03:00:00 11,4 10,8 13 7 27 14 SE 1011,3 15 0,0
11.09.2019 02:00:00 11,5 10,9 10 6 26 14 SE 1012,0 28 0,0
11.09.2019 01:00:00 11,7 10,8 8 5 23 12 ESE 1012,5 35 0,0
11.09.2019 00:00:00 11,8 10,7 16 9 33 18 E 1012,7 45 0,1
10.09.2019 23:00:00 11,8 10,5 13 7 29 16 ESE 1013,2 23 0,1
10.09.2019 22:00:00 11,3 10,8 13 7 28 15 SE 1013,5 36 0,1
10.09.2019 21:00:00 11,1 10,9 15 8 24 13 SE 1014,0 4,9 0,7
10.09.2019 20:00:00 11,0 10,8 14 8 25 14 SE 1014,6 8 0,2
10.09.2019 19:00:00 11,1 10,9 14 8 35 19 SE 1015,3 12 0,0
10.09.2019 18:00:00 11,0 10,7 18 10 31 17 SSE 1015,5 9 0,0
10.09.2019 17:00:00 11,2 10,3 23 12 36 20 SSE 1015,8 29 0,0
10.09.2019 16:00:00 11,1 10,3 18 10 34 18 SSE 1016,5 10 0,0
10.09.2019 15:00:00 10,7 9,8 18 10 34 19 ESE 1017,2 11 0,1
10.09.2019 14:00:00 11,0 9,8 21 11 37 20 ESE 1017,6 43 0,0
10.09.2019 13:00:00 10,4 9,3 23 13 41 22 ESE 1017,6 36 0,0
10.09.2019 12:00:00 9,8 8,9 19 10 28 15 SE 1018,6 49 0,0
10.09.2019 11:00:00 9,1 8,5 16 9 29 16 SE 1019,3 15 0,0
10.09.2019 10:00:00 8,9 8,4 14 8 - - SE 1019,6 43 0,0
10.09.2019 09:00:00 8,7 7,9 16 9 26 14 ESE 1019,9 50 0,0
10.09.2019 08:00:00 8,2 7,3 15 8 24 13 E 1020,0 50 0,0
10.09.2019 07:00:00 7,9 7,1 13 7 19 11 ESE 1020,4 50 0,1
10.09.2019 06:00:00 6,8 6,7 5 3 9 5 S 1021,2 11 0,2
10.09.2019 05:00:00 6,4 6,1 6 4 10 6 SSE 1021,5 41 0,0
10.09.2019 04:00:00 6,0 5,7 3 1 5 3 S 1022,0 50 0,0
10.09.2019 03:00:00 5,6 5,3 3 2 9 5 WNW 1022,7 17 0,0
10.09.2019 02:00:00 4,8 4,7 4 2 9 5 W 1023,2 50 0,0
10.09.2019 01:00:00 2,4 2,0 0 0 11 6 N 1024,0 50 0,0
10.09.2019 00:00:00 3,2 3,1 3 2 10 5 S 1024,0 50 0,0
09.09.2019 23:00:00 3,9 3,6 3 1 10 5 W 1024,0 50 0,0
09.09.2019 22:00:00 4,7 3,8 3 2 20 11 NNW 1023,7 50 0,0
09.09.2019 21:00:00 6,6 4,9 9 5 14 8 SE 1023,3 50 0,0
09.09.2019 20:00:00 9,5 4,7 12 7 19 11 ESE 1021,8 50 0,0
09.09.2019 19:00:00 10,4 5,0 7 4 25 13 ESE 1021,1 50 0,0
09.09.2019 18:00:00 11,9 4,4 10 6 21 11 SE 1020,6 50 0,0
09.09.2019 17:00:00 13,0 4,7 12 6 21 12 SE 1020,3 50 0,0
09.09.2019 16:00:00 13,1 3,5 10 6 22 12 SE 1020,9 40 0,0
09.09.2019 15:00:00 12,8 0,8 12 7 23 12 SE 1021,4 48 0,0
09.09.2019 14:00:00 12,6 0,0 14 7 24 13 SE 1021,7 44 0,0
09.09.2019 13:00:00 11,5 -0,7 13 7 23 12 SE 1021,9 43 0,0
09.09.2019 12:00:00 10,8 0,2 13 7 23 12 SE 1022,5 43 0,0

tt = Température de l'air
td = dewpoint
ff = Vitesse du vent
fx = gusts
dd = Direction du vent
ppp = reduced air pressure
vv = visibility
rr = Quantités de précipitations

stations d'obs. à proximité